Regional Weather Roundup
Issued by NWS

Home | Current Version | Previous Version | Text Only | Print | Product List | Glossary On
Versions: 1 2 3 4 5 6 7 8 9 10 11 12 13 14 15 16 17 18 19 20 21 22 23 24 25 26 27 28 29
000
ASUS46 KSEW 310610
RWRWA

WASHINGTON REGIONAL WEATHER ROUNDUP
NATIONAL WEATHER SERVICE SEATTLE WA
1100 PM PDT THU OCT 30 2014

NOTE:"FAIR" INDICATES FEW OR NO CLOUDS BELOW 12,000 FEET WITH NO
SIGNIFICANT WEATHER AND/OR OBSTRUCTIONS TO VISIBILITY.

WAZ505-507>509-310700-
SEATTLE, TACOMA, EVERETT, AND VICINITY

CITY           SKY/WX    TMP DP  RH WIND       PRES   REMARKS
EVERETT        CLOUDY    55  52  89 S7        29.77S
6HR MIN TEMP:  55; 6HR MAX TEMP:  58; 6HR PCP:  0.28;

BOEING FIELD   CLOUDY    58  52  80 SE7       29.77F
6HR MIN TEMP:  58; 6HR MAX TEMP:  61; 6HR PCP:  0.17;

RENTON         LGT RAIN  55  54  96 SE3       29.77F
6HR MIN TEMP:  55; 6HR MAX TEMP:  59; 6HR PCP:  0.45;

SEATAC AIRPORT LGT RAIN  54  52  93 S6        29.78F
6HR MIN TEMP:  54; 6HR MAX TEMP:  57; 6HR PCP:  0.32;

JBLM-MCCHORD   LGT RAIN  53  53  99 S5        29.79R
6HR MIN TEMP:  53; 6HR MAX TEMP:  56; 6HR PCP:  0.23;

PUYALLUP       NOT AVBL
JBLM-FT LEWIS  HVY RAIN  53  53  99 S6        29.78R
6HR MIN TEMP:  53; 6HR MAX TEMP:  58; 6HR PCP:  0.37;

TACOMA NARROWS LGT RAIN  53  51  93 S9        29.78R
6HR MIN TEMP:  53; 6HR MAX TEMP:  57; 6HR PCP:  0.32;

$$

WAZ001-503-506-510-514-515-310700-
NORTH INTERIOR

CITY           SKY/WX    TMP DP  RH WIND       PRES   REMARKS
BELLINGHAM     RAIN      53  50  89 S5        29.77R FOG
6HR MIN TEMP:  53; 6HR MAX TEMP:  62; 6HR PCP:  0.16;

FRIDAY HARBOR  LGT RAIN  51  50  96 CALM      29.77S
6HR MIN TEMP:  51; 6HR MAX TEMP:  57; 6HR PCP: TRACE;

EASTSOUND      LGT RAIN  52  50  93 MISG      29.75S
PORT ANGELES   CLOUDY    51  48  89 MISG      29.77R
6HR MIN TEMP:  51; 6HR MAX TEMP:  56; 6HR PCP:  0.16;

NAS WHIDBEY    LGT RAIN  55  50  83 E5        29.78S
6HR MIN TEMP:  55; 6HR MAX TEMP:  62; 6HR PCP:  0.07;

BURLINGTON     MOCLDY   N/A N/A N/A E3        29.79S
$$

WAZ020-022-039-040-504-511-512-310700-
SOUTHWEST INTERIOR

CITY           SKY/WX    TMP DP  RH WIND       PRES   REMARKS
SHELTON        LGT RAIN  53  51  93 SW3       29.75S
6HR MIN TEMP:  53; 6HR MAX TEMP:  57; 6HR PCP:  0.20;

OLYMPIA        LGT RAIN  53  52  96 S5        29.78S FOG
6HR MIN TEMP:  53; 6HR MAX TEMP:  59; 6HR PCP:  0.34;

CHEHALIS       LGT RAIN  54  52  94 CALM      29.78F
KELSO          CLOUDY   N/A N/A N/A CALM      29.82R
                                      6HR PCP:  0.64;

VANCOUVER      LGT RAIN  56  54  93 SE7       29.78F
6HR MIN TEMP:  56; 6HR MAX TEMP:  57; 6HR PCP:  0.33;

SCAPPOOSE, OR  LGT RAIN  57  56  96 SE8       29.77S FOG
6HR MIN TEMP:  57; 6HR MAX TEMP:  58; 6HR PCP:  0.39;

PORTLAND, OR   LGT RAIN  56  56 100 E8        29.78S
6HR MIN TEMP:  56; 6HR MAX TEMP:  57; 6HR PCP:  0.31;

$$

WAZ021-516-517-310700-
WASHINGTON COAST

CITY           SKY/WX    TMP DP  RH WIND       PRES   REMARKS
FORKS          LGT RAIN  50  50 100 CALM      29.77R FOG
6HR MIN TEMP:  50; 6HR MAX TEMP:  53; 6HR PCP:  0.10;

HOQUIAM        CLOUDY    54  54 100 NE3       29.76F FOG
6HR MIN TEMP:  53; 6HR MAX TEMP:  56; 6HR PCP:  0.06;

ASTORIA, OR    CLOUDY    54  52  93 CALM      29.77S
6HR MIN TEMP:  54; 6HR MAX TEMP:  57; 6HR PCP:  0.17;

$$

WAZ019-023-024-040-518-519-310700-
CASCADE MOUNTAINS AND COLUMBIA GORGE

CITY           SKY/WX    TMP DP  RH WIND       PRES   REMARKS
STAMPEDE PASS  NOT AVBL
TROUTDALE, OR  LGT RAIN  57  54  89 E12       29.78S
6HR MIN TEMP:  56; 6HR MAX TEMP:  58; 6HR PCP:  0.27;

THE DALLES, OR LGT RAIN  55  54  94 CALM      29.82R FOG
6HR MIN TEMP:  54; 6HR MAX TEMP:  59; 6HR PCP:  0.33;

$$

WAZ026-027-041>044-520-521-310700-
EAST SLOPES

CITY           SKY/WX    TMP DP  RH WIND       PRES   REMARKS
OMAK           LGT RAIN  48  47  96 CALM      29.83F FOG
6HR MIN TEMP:  48; 6HR MAX TEMP:  50; 6HR PCP:  0.06;

WENATCHEE      LGT RAIN  50  47  89 W6        29.83F FOG
6HR MIN TEMP:  50; 6HR MAX TEMP:  51; 6HR PCP:  0.07;

ELLENSBURG     LGT RAIN  51  48  89 NW5       29.80F FOG
6HR MIN TEMP:  50; 6HR MAX TEMP:  54; 6HR PCP:  0.12;

YAKIMA         LGT RAIN  53  51  93 SW7       29.82F FOG
6HR MIN TEMP:  53; 6HR MAX TEMP:  58; 6HR PCP:  0.05;

$$

WAZ028-034-035-310700-
COLUMBIA BASIN

CITY           SKY/WX    TMP DP  RH WIND       PRES   REMARKS
EPHRATA        CLOUDY    53  47  79 N9        29.79F
6HR MIN TEMP:  52; 6HR MAX TEMP:  57;

MOSES LAKE     CLOUDY    52  46  80 N12       29.80F
6HR MIN TEMP:  51; 6HR MAX TEMP:  58;

PASCO          CLOUDY    52  51  97 CALM      29.80F
6HR MIN TEMP:  51; 6HR MAX TEMP:  57;

HERMISTON, OR  CLOUDY    53  49  86 S6        29.81S
6HR MIN TEMP:  51; 6HR MAX TEMP:  59;

$$

WAZ036>038-310700-
NORTHEAST WASHINGTON

CITY           SKY/WX    TMP DP  RH WIND       PRES   REMARKS
SPOKANE GEIGER CLOUDY    49  43  80 NE10      29.81F
6HR MIN TEMP:  49; 6HR MAX TEMP:  52;

SPOKANE FELTS  CLOUDY    49  44  83 CALM      29.82F
6HR MIN TEMP:  49; 6HR MAX TEMP:  54;

FAIRCHILD AFB  CLOUDY    47  44  87 NE8       29.81F
6HR MIN TEMP:  47; 6HR MAX TEMP:  51;

COEURDALENE,ID   N/A    N/A N/A N/A MISG        N/A
DEER PARK      CLOUDY    50  43  77 N10       29.82F
6HR MIN TEMP:  50; 6HR MAX TEMP:  52;

$$

WAZ029>033-310700-
SOUTHEAST WASHINGTON

CITY           SKY/WX    TMP DP  RH WIND       PRES   REMARKS
PULLMAN        CLOUDY    56  44  64 E15       29.82F
6HR MIN TEMP:  55; 6HR MAX TEMP:  58; 6HR PCP: TRACE;

LEWISTON, ID   CLOUDY    56  47  71 SE5       29.79F
6HR MIN TEMP:  53; 6HR MAX TEMP:  59;

WALLA WALLA    CLOUDY    52  50  93 SW7       29.81R FOG
6HR MIN TEMP:  52; 6HR MAX TEMP:  56;

PENDLETON, OR  CLOUDY    49  47  93 NW5       29.82R FOG
6HR MIN TEMP:  48; 6HR MAX TEMP:  55;

$$



USA.gov is the U.S. government's official web portal to all federal, state and local government web resources and services.